Regional Weather Roundup
Issued by NWS Goodland, KS

Home | Current Version | Previous Version | Text Only | Print | Product List | Glossary On
Versions: 1 2 3 4 5 6 7 8 9 10 11 12 13 14 15 16 17 18 19 20 21 22 23 24 25 26 27 28 29 30 31 32 33 34 35 36 37 38 39 40 41 42 43 44 45 46 47 48 49 50
000
ASUS43 KGLD 230159
RWRGLD

GOODLAND FORECAST AREA HOURLY WEATHER ROUNDUP
NATIONAL WEATHER SERVICE GOODLAND KS
700 PM MST WED NOV 22 2017

...OFFICIAL OBSERVATIONS...

CITY           SKY/WX    TMP DP  RH WIND       PRES   REMARKS
GOODLAND KS    CLEAR     45  34  65 W6        30.15R
HILL CITY KS   CLEAR     52  34  50 W6        30.10R
IMPERIAL NEB   CLOUDY    48  35  60 W7        30.12R
MCCOOK NEB     CLEAR     50  37  61 W6        30.09R
AKRON CO       CLEAR     53  36  52 NW5       30.21S
BURLINGTON CO  CLEAR     46  34  62 W9        30.19R
LIMON CO       CLOUDY    43  32  65 W3        30.26S
$$

...UNOFFICIAL OBSERVATIONS...

CITY           SKY/WX    TMP DP  RH WIND       PRES   REMARKS
LENORA KS        N/A     52  32  46 SW8         N/A
NORTON KS      CLEAR     48  30  49 SW7       30.07
SHARON SPRINGS   N/A     47  31  53 W6          N/A
KIT CARSON CO    N/A     48  30  50 CALM        N/A
YUMA CO        FAIR      45  34  65 NW9       30.18S
$$



USA.gov is the U.S. government's official web portal to all federal, state and local government web resources and services.